Theta_e
339 335 330 322 316 315 312 303 293 291 294 288 287 289 295 303 305 310 311 313 308 317 319 320 320 319 316 314 316 317 318 314 312 305 301 319 335 335 336 336 336 338 337 338 340 340 340 341 344 346 348 347 348 349 349 348 348 348 348 348 347 347 347 346 346 345 346 347 347 347 348 347 347 346 346 346 346 347 347 346 348 347 347 347 347 348 347 344 342 342 341 341 341 345 346 346 346
336 330 327 323 316 311 306 296 289 288 284 286 291 291 300 305 309 307 310 313 313 317 320 319 319 320 321 320 320 320 318 321 322 320 324 332 335 335 337 336 336 336 338 339 339 339 336 342 345 346 346 346 347 347 348 348 347 347 347 347 348 348 347 347 347 346 346 346 346 346 346 346 346 345 345 345 345 346 346 346 346 347 347 346 348 346 344 343 341 341 340 341 342 343 346 347 346
324 318 312 312 307 307 302 294 291 283 284 282 289 296 306 306 307 310 312 316 318 319 320 318 319 318 318 319 315 315 309 326 326 327 325 332 326 330 336 338 337 337 338 339 339 338 339 344 347 347 346 346 347 347 347 347 347 347 347 347 348 347 347 346 346 346 346 345 345 345 346 345 345 346 346 345 345 345 345 346 346 346 347 346 345 344 344 343 343 341 341 341 341 342 345 346 345
318 314 309 305 305 300 294 288 285 283 283 282 289 298 305 305 308 311 315 318 320 320 318 316 315 320 317 314 316 320 320 322 327 327 325 328 328 334 337 337 339 337 338 339 339 338 339 345 345 346 346 346 346 346 346 346 346 346 346 347 347 346 345 345 345 345 346 345 344 345 346 345 345 345 346 346 344 344 344 345 346 347 345 345 345 344 344 344 344 344 343 342 342 341 343 344 344
314 317 309 304 300 300 292 289 285 287 288 286 292 299 305 308 309 311 315 318 318 318 317 316 314 318 321 320 323 315 316 326 327 329 328 330 335 337 338 338 335 336 336 337 337 338 339 346 346 345 345 345 345 345 345 346 346 346 346 346 346 346 345 345 345 345 344 344 344 344 345 345 345 345 345 346 345 345 344 345 345 346 346 345 344 344 344 342 343 343 343 342 342 342 343 345 343
309 312 314 311 304 303 294 292 295 293 293 292 295 300 305 309 310 312 315 316 319 319 318 316 312 313 316 320 325 320 325 318 327 328 329 329 334 336 337 337 334 335 334 334 335 337 338 345 346 346 345 346 345 345 345 345 346 346 346 346 345 345 345 345 345 344 344 344 344 344 344 344 344 345 344 346 346 346 346 345 344 345 344 344 345 345 343 344 343 340 340 341 340 341 342 344 344
307 309 307 302 301 297 289 292 293 294 300 302 301 304 308 309 312 313 311 313 317 318 320 316 318 316 314 320 324 327 329 329 327 328 331 332 335 335 336 334 334 333 332 332 333 337 340 346 347 346 346 346 346 346 345 346 345 345 345 345 345 345 344 344 344 344 344 344 344 344 344 344 344 344 344 344 344 345 345 345 345 345 344 343 344 345 345 344 343 342 342 342 341 341 340 342 341
314 309 303 295 292 296 294 293 296 296 301 307 307 307 309 312 314 313 312 312 311 313 317 318 319 314 312 323 313 326 329 330 330 333 332 333 334 334 335 333 331 330 330 331 336 341 346 347 346 346 346 346 345 345 345 344 344 344 344 345 344 344 344 344 345 344 345 344 345 345 344 344 344 344 344 344 344 344 344 344 344 344 344 344 344 344 344 343 342 341 340 342 341 341 341 341 339
305 302 300 295 291 293 294 295 297 302 303 307 308 313 318 315 315 314 311 314 315 316 316 317 318 310 313 318 317 324 327 331 332 335 332 332 332 334 335 332 330 328 328 332 336 334 336 347 346 345 345 344 344 343 344 344 344 344 344 344 344 344 344 344 344 345 344 344 344 345 344 344 344 344 344 344 344 344 344 343 343 343 343 343 343 342 342 342 342 338 338 338 341 340 341 339 337
305 300 294 292 293 294 293 295 297 300 303 307 308 308 311 316 315 314 313 313 314 315 316 318 317 313 319 314 318 322 324 329 329 330 330 331 333 332 330 330 330 329 328 330 335 335 339 347 344 344 343 344 343 343 343 343 344 343 344 344 344 344 344 344 344 344 344 344 344 344 344 344 343 344 343 344 344 343 344 344 343 343 343 343 342 341 341 342 340 340 337 339 341 340 341 341 340
298 296 296 293 290 289 293 294 294 301 304 308 309 312 313 314 313 312 313 314 317 314 316 318 316 316 317 316 318 329 330 329 328 326 329 331 332 330 329 330 331 330 331 331 333 336 335 337 344 343 344 343 343 343 343 343 343 343 343 343 343 343 343 344 344 344 344 344 343 343 343 343 344 344 344 344 343 343 343 343 344 343 343 343 343 339 340 340 341 340 340 336 337 340 339 337 339
297 294 296 291 290 291 291 294 298 300 303 306 307 312 315 314 313 310 312 311 314 314 314 319 313 318 312 314 315 321 326 328 326 326 329 331 331 330 331 331 333 331 332 333 335 333 334 335 336 346 345 344 344 345 344 343 343 343 344 343 342 342 342 341 342 342 342 343 343 343 343 342 343 343 343 343 344 344 343 344 344 344 343 343 342 342 341 340 341 341 340 338 336 336 338 337 338
296 298 295 292 294 293 294 296 297 302 298 303 306 312 315 313 311 312 312 313 312 311 312 318 320 318 309 311 319 320 323 325 326 327 328 330 331 331 332 331 332 333 334 337 333 331 333 334 335 338 343 345 342 344 343 343 343 342 342 342 341 342 341 341 340 341 341 342 344 344 344 343 343 343 343 343 343 343 343 344 344 343 343 342 343 342 341 341 340 341 342 340 338 339 339 335 338
298 299 296 294 296 295 294 296 296 298 297 302 309 315 316 312 313 315 314 311 313 311 318 322 320 317 313 314 313 313 318 324 326 328 329 331 332 332 331 331 332 331 331 333 333 332 333 335 335 333 336 334 334 337 340 343 340 342 343 342 341 341 341 341 340 340 340 340 341 342 342 343 343 343 343 343 343 342 343 343 343 343 343 343 342 342 341 340 341 341 340 340 340 340 340 338 339
302 303 298 294 293 294 297 296 297 295 298 305 310 313 316 318 317 317 315 310 314 321 323 325 321 315 305 311 308 312 319 324 326 330 332 332 332 331 330 330 328 327 329 332 334 332 332 331 332 331 334 332 330 329 329 334 340 343 342 342 342 341 339 339 339 339 339 339 339 338 338 338 340 342 343 343 342 342 342 343 343 343 343 343 343 342 341 341 341 342 342 341 339 340 339 339 341
301 303 296 295 294 293 296 297 300 298 301 308 314 316 315 316 320 316 317 317 315 321 321 315 323 315 315 314 314 318 322 325 330 331 328 327 326 326 328 327 326 328 328 328 327 327 327 326 326 326 327 326 324 323 324 326 335 340 342 341 339 338 338 338 337 336 337 337 337 337 336 333 333 334 341 343 343 343 342 342 343 342 343 343 342 342 340 340 339 339 341 340 341 339 339 342 343
307 301 297 291 294 295 297 298 300 296 302 310 315 313 309 311 319 319 322 321 317 317 319 320 319 322 315 317 320 324 327 334 332 326 325 323 321 322 324 324 325 322 324 324 324 324 325 324 323 322 323 323 323 323 322 323 331 330 332 337 337 336 336 336 335 334 333 333 333 334 332 330 326 328 332 337 340 340 342 342 342 342 342 342 342 343 340 339 337 339 341 341 342 342 342 344 344
303 298 293 292 293 296 300 301 301 307 306 310 311 314 312 309 314 318 319 317 316 316 315 317 321 320 321 323 324 325 324 324 324 323 319 319 319 319 321 320 320 319 320 322 323 324 324 323 322 321 321 321 322 323 323 323 323 326 321 325 330 331 334 331 330 329 331 323 330 326 326 329 325 324 332 337 335 335 336 341 341 342 342 342 342 343 340 339 339 338 340 342 342 342 342 337 338
300 296 292 293 296 303 305 307 307 307 307 310 312 314 312 310 314 316 314 313 312 313 314 316 317 319 321 322 323 322 322 321 321 319 318 318 318 318 318 319 319 320 321 321 322 323 322 322 323 322 321 321 321 321 322 324 320 319 319 321 326 330 331 328 321 325 320 321 323 322 326 324 325 324 330 334 334 333 332 338 342 343 343 342 342 342 343 341 341 340 341 343 342 342 336 334 334
306 299 296 297 302 307 310 311 310 311 311 311 313 313 313 314 314 317 313 312 312 310 312 314 315 315 317 319 321 320 321 319 318 318 318 317 317 317 318 318 318 317 317 318 321 323 321 320 321 322 320 320 321 321 321 321 321 320 319 319 320 321 321 323 321 320 320 320 320 323 321 324 322 321 330 331 330 325 324 331 337 340 341 340 341 336 338 340 338 338 340 340 335 336 334 335 335
305 303 297 301 308 304 308 312 312 313 312 311 310 312 311 312 314 314 314 311 311 311 313 311 313 315 317 317 318 318 318 318 317 317 317 317 318 318 318 318 316 316 316 319 321 320 320 319 318 318 318 319 319 322 323 323 322 323 321 319 320 319 320 320 320 320 320 319 320 322 321 323 319 320 321 321 321 322 322 323 325 332 333 332 339 330 332 333 332 332 331 333 332 334 335 335 334
312 307 305 307 309 304 309 312 313 312 312 310 309 310 310 317 316 312 308 302 302 310 314 315 316 316 317 317 317 317 317 316 317 317 316 316 317 318 318 316 316 317 322 318 317 318 319 319 318 318 319 318 318 319 321 326 322 323 325 325 321 320 320 319 320 319 320 320 320 323 322 318 318 319 320 321 322 321 322 322 323 330 331 329 335 329 331 332 331 332 332 332 332 331 333 335 334
302 305 308 309 310 306 309 311 312 311 309 309 308 311 314 311 311 311 311 309 311 315 318 317 318 318 318 316 317 316 316 316 316 316 316 316 316 316 318 316 316 318 317 317 318 320 318 318 317 317 317 317 317 318 319 319 318 320 325 329 323 322 321 319 318 319 320 320 320 323 321 318 318 318 319 321 322 321 322 322 322 327 329 329 332 330 330 330 331 332 332 332 332 332 333 334 334
306 301 307 309 309 308 309 309 308 309 310 309 311 314 311 310 307 312 312 318 318 318 319 319 319 320 319 316 316 315 315 315 315 316 317 316 316 317 317 317 317 316 317 317 318 319 320 318 319 318 318 317 317 318 318 318 317 319 324 327 325 328 322 320 318 320 320 319 323 321 327 318 318 317 318 319 321 321 322 323 323 325 327 328 330 330 330 329 329 330 331 332 333 332 333 332 333
304 303 307 307 308 308 308 310 311 311 311 313 313 311 309 311 310 309 312 318 318 318 320 320 319 318 317 316 316 315 315 315 315 315 317 318 318 320 319 316 316 316 316 317 318 318 318 321 319 319 319 318 317 318 318 317 318 318 319 320 323 329 319 320 320 321 319 320 320 321 324 321 318 318 318 319 320 321 322 323 324 324 326 327 329 329 330 329 329 329 328 329 331 332 332 331 333
309 306 309 308 310 309 309 310 310 311 313 314 312 310 312 313 313 309 312 316 318 320 319 318 317 316 316 316 316 316 314 314 314 315 316 316 317 319 315 315 316 317 316 317 318 319 319 318 319 319 319 320 320 319 318 319 319 318 318 319 322 325 318 320 323 318 319 318 319 320 321 323 320 318 319 319 321 322 323 324 324 324 324 326 327 328 330 330 328 328 328 328 328 329 331 333 334
308 307 307 307 307 307 309 309 307 310 312 313 310 309 311 314 310 302 312 316 319 318 316 314 315 316 317 317 317 316 316 316 315 315 316 314 316 316 315 315 317 317 319 318 318 318 324 321 323 324 325 329 322 322 321 318 319 319 321 318 320 319 320 324 320 318 320 318 320 319 320 323 323 319 320 321 323 323 324 324 323 323 324 325 326 326 329 332 328 328 329 329 329 329 329 331 332
308 307 305 305 306 307 308 307 308 311 309 312 312 309 311 308 308 303 309 316 318 316 314 314 314 314 316 317 317 317 317 317 317 316 316 313 314 314 314 315 316 316 317 317 318 319 320 321 322 321 322 326 325 322 325 320 319 321 321 320 320 320 324 318 318 318 323 318 320 319 319 322 325 321 320 322 324 323 323 323 322 323 323 324 326 326 326 328 328 329 329 331 331 330 329 329 330
307 306 301 303 304 304 307 307 308 309 308 313 311 300 299 300 304 309 313 315 316 315 313 314 313 314 315 315 316 316 317 317 316 315 317 314 313 314 315 316 317 317 316 317 318 322 320 320 320 319 322 323 321 321 320 320 319 321 320 320 322 324 318 318 318 317 318 320 320 318 319 323 323 322 321 321 324 322 322 322 322 324 323 324 325 326 325 325 325 325 327 329 330 329 328 328 330
307 305 301 299 298 299 306 308 307 308 308 312 305 289 293 296 302 308 315 315 314 312 312 313 312 312 312 314 314 315 316 316 315 316 315 315 313 314 315 315 318 317 317 317 319 320 322 322 322 321 322 321 323 320 322 320 321 323 323 320 325 320 317 315 321 316 318 319 319 317 318 323 321 322 323 323 322 322 322 322 322 322 323 324 324 325 324 324 324 325 327 327 330 326 325 326 329
301 302 300 295 293 295 302 307 305 306 309 311 305 291 290 296 301 309 315 316 313 311 312 312 311 311 312 311 313 314 316 315 317 316 317 317 315 314 315 315 317 316 321 316 319 319 325 322 323 323 325 320 327 322 321 324 323 321 321 320 320 319 319 315 315 316 316 315 318 316 318 322 321 321 323 323 323 321 320 321 321 321 324 323 322 324 323 323 323 323 326 325 325 325 325 327 326
298 296 290 290 294 293 296 305 307 304 307 309 303 292 295 298 302 309 315 315 313 310 311 312 310 311 311 311 312 313 315 317 317 317 319 319 317 315 316 316 316 316 318 318 319 320 321 320 326 323 323 320 318 322 318 320 321 320 321 329 319 318 318 317 315 315 315 314 316 316 317 323 320 320 323 324 324 321 320 320 320 322 323 321 321 322 323 322 322 322 323 324 323 323 325 324 325
293 295 289 292 291 292 297 303 305 307 306 307 303 294 297 300 302 310 315 315 313 310 310 310 310 310 312 312 312 313 314 315 317 317 317 318 317 316 316 316 317 317 318 318 318 319 319 320 326 321 318 318 318 321 319 321 321 321 322 322 319 319 316 316 316 316 315 314 314 316 317 322 321 320 323 324 323 322 320 319 320 321 322 320 320 320 321 323 321 321 321 324 321 321 321 322 323
288 292 292 290 293 291 292 297 304 306 308 303 304 299 298 299 302 311 313 314 311 310 310 309 310 312 313 312 313 313 313 314 315 316 317 316 317 316 316 321 318 318 318 319 319 320 319 319 321 319 318 319 318 318 320 320 320 321 319 320 327 317 317 316 316 315 315 314 314 315 317 318 325 320 321 322 321 324 320 319 319 321 322 320 320 320 320 321 321 320 320 321 321 321 320 320 321
287 291 292 292 292 292 293 296 299 306 307 303 302 300 301 301 303 310 312 314 312 312 311 310 311 311 312 313 313 313 313 313 316 316 316 317 317 316 316 317 316 317 318 318 318 318 317 318 321 323 321 318 319 320 324 321 319 319 319 319 319 320 316 318 316 315 315 314 315 315 319 318 321 321 320 321 322 320 319 319 319 319 321 320 320 319 319 321 321 320 319 320 320 321 320 320 320
293 294 293 290 292 291 291 296 300 306 302 301 299 298 299 301 301 307 311 313 312 312 311 309 309 309 310 311 312 312 313 314 317 316 316 316 317 317 316 317 316 316 317 317 319 317 316 317 317 318 319 317 317 319 318 317 316 318 317 317 319 319 316 321 319 316 315 314 318 315 317 316 317 324 320 319 321 321 318 318 318 319 319 318 317 317 317 318 318 318 319 322 318 320 320 320 320
296 295 294 292 292 291 294 295 299 306 302 301 299 299 298 298 300 304 310 311 310 310 310 309 308 308 309 310 311 312 312 314 315 315 316 317 318 317 317 317 316 317 317 317 317 316 316 318 319 317 317 319 320 317 317 316 317 316 314 315 317 314 319 324 317 317 317 316 319 316 317 317 315 318 325 320 317 321 319 318 318 318 318 319 317 317 317 319 320 319 319 320 319 317 317 319 319
296 294 294 293 292 292 295 297 302 306 303 299 298 298 298 299 299 303 309 309 309 310 309 309 309 308 308 308 309 310 312 312 313 313 314 315 316 316 317 316 320 316 316 317 317 318 316 316 317 316 316 318 317 318 320 317 315 317 316 316 317 316 316 317 317 316 319 321 317 316 317 315 315 317 323 322 319 317 318 318 317 317 317 319 318 318 319 320 317 317 318 317 318 317 316 318 317
295 295 292 293 291 292 294 297 302 304 302 295 297 297 298 297 298 301 308 309 309 310 310 310 309 308 308 308 309 309 309 310 310 312 312 314 316 316 317 316 317 317 317 319 317 317 316 316 316 316 316 317 316 318 316 315 317 319 319 316 316 318 317 318 318 320 320 317 314 315 317 315 315 317 317 324 319 318 316 317 317 316 317 319 315 315 315 315 315 315 316 317 315 316 317 319 317
295 290 291 290 291 293 289 292 299 301 299 296 296 297 294 295 297 300 305 309 308 308 309 309 309 308 308 309 308 309 309 309 310 311 311 312 314 315 315 316 316 316 318 317 317 317 317 320 316 315 317 317 317 320 323 316 321 321 321 320 320 319 320 328 318 316 316 314 314 314 314 314 315 316 317 320 319 316 316 316 317 317 316 318 314 314 314 314 315 315 315 317 315 313 312 314 320
293 293 290 289 291 290 290 292 296 296 299 298 295 289 291 291 294 296 299 304 308 307 308 307 308 309 309 309 309 310 310 310 310 311 310 312 314 316 317 317 316 316 317 318 318 319 320 320 320 318 318 318 318 323 322 319 325 320 318 321 318 317 316 313 315 316 314 320 322 316 313 315 316 317 317 317 324 317 316 316 317 317 317 317 316 314 314 314 314 314 315 315 314 312 311 312 315
288 291 295 294 291 292 294 296 296 294 291 294 295 284 282 288 291 294 296 300 303 304 304 304 306 307 308 309 310 310 311 311 311 311 311 312 313 314 315 316 317 316 318 319 320 320 320 320 319 318 316 317 319 319 319 321 324 318 318 317 314 307 312 312 314 314 314 314 314 313 314 314 315 318 316 317 319 325 315 316 316 317 317 318 317 314 313 314 315 315 315 314 314 314 312 311 311
289 291 294 294 291 294 296 294 293 287 287 294 295 288 282 286 293 295 295 296 299 300 302 304 305 306 306 308 309 309 309 310 309 311 310 313 312 313 314 315 317 317 319 319 319 320 320 320 320 319 319 318 319 320 320 324 317 316 316 316 314 313 313 311 310 313 314 314 315 315 315 314 315 316 317 317 317 322 316 315 316 316 316 316 321 314 314 313 314 316 318 314 315 316 312 310 311
288 291 292 293 293 295 295 296 293 287 292 297 293 288 287 284 288 295 296 297 297 299 301 302 304 305 306 307 308 308 309 309 310 311 311 312 312 314 316 317 317 319 320 319 319 319 320 321 321 320 320 323 320 320 320 322 319 315 315 314 317 313 315 317 314 316 317 321 320 318 315 315 313 315 316 316 317 319 323 316 315 316 316 317 322 314 314 314 314 315 317 314 315 316 313 312 311
289 292 291 291 294 295 295 295 289 289 291 287 288 293 287 282 286 293 297 296 296 298 300 302 304 305 306 306 308 308 309 309 310 312 312 312 313 315 316 316 319 319 319 320 321 321 321 321 322 320 320 321 320 320 321 320 322 318 317 316 316 320 316 318 320 323 322 318 317 317 314 314 315 314 314 316 316 316 326 319 315 315 315 317 323 315 314 313 313 313 314 314 312 313 316 314 312
293 291 295 294 294 293 293 291 290 289 288 283 290 289 287 283 284 290 293 295 294 297 299 301 303 305 306 306 307 307 308 309 310 312 312 312 313 314 315 317 318 319 320 321 321 320 320 319 321 321 320 320 321 320 322 320 320 322 316 316 317 316 319 319 318 318 317 315 315 316 314 314 315 315 313 315 316 316 315 317 317 316 316 317 324 312 313 313 313 312 313 314 313 313 313 315 314
292 292 292 290 290 288 288 287 286 286 280 281 287 290 289 283 284 292 292 294 295 297 298 298 299 302 304 305 306 307 308 309 310 311 311 312 312 314 315 317 318 317 318 319 320 321 320 320 320 321 322 320 321 321 321 321 320 320 319 317 317 318 317 316 316 318 317 316 316 317 315 314 313 314 313 317 314 315 315 322 319 314 317 325 323 313 313 314 314 312 311 311 312 312 313 312 314
293 290 288 289 289 287 285 282 283 281 277 282 286 290 289 285 285 289 294 296 297 299 298 300 300 302 303 304 306 307 308 309 310 311 312 312 313 315 315 316 316 317 317 318 319 320 321 321 319 320 320 320 320 321 321 321 321 320 320 319 318 319 318 318 317 318 318 317 316 316 315 314 315 314 314 313 313 314 319 318 319 316 317 313 313 312 313 313 315 314 312 315 312 311 312 315 312
292 289 288 285 280 281 281 279 283 280 283 288 289 289 289 286 287 293 295 298 299 299 300 301 301 302 302 303 305 307 308 309 310 310 311 311 312 312 313 315 315 315 317 318 319 320 320 320 320 320 321 320 320 321 321 321 321 321 321 320 320 320 319 319 319 319 319 318 317 316 315 315 314 315 314 313 313 313 316 317 316 315 315 318 318 313 313 314 313 312 314 312 312 313 313 312 313
291 286 281 279 276 271 275 274 276 279 284 286 288 289 286 286 292 293 295 298 299 300 300 301 301 301 302 302 303 306 307 309 310 310 311 310 311 312 312 314 315 315 315 317 317 319 319 320 319 320 322 320 320 320 321 321 321 322 322 322 322 322 321 320 320 320 320 319 318 317 317 316 315 316 314 313 314 314 317 318 319 316 315 314 318 314 313 313 312 311 312 313 314 313 312 312 312
291 288 290 286 277 281 276 277 280 280 280 283 286 287 284 287 289 296 297 298 298 300 301 299 300 300 300 301 304 306 307 308 309 310 312 312 312 312 313 314 313 314 315 316 315 316 317 318 319 321 322 321 319 320 320 321 322 322 322 323 323 322 322 322 321 321 320 319 318 318 318 316 316 316 314 314 315 315 315 316 316 315 314 314 316 316 318 316 315 315 315 312 315 315 311 315 312
291 289 288 288 290 282 283 278 280 280 283 284 286 285 287 288 296 298 297 297 299 301 300 303 301 302 304 305 305 306 308 309 310 311 311 311 312 311 311 313 314 314 314 314 315 315 316 318 318 320 321 322 320 322 321 321 322 322 322 322 323 323 325 324 323 324 323 321 320 319 319 317 317 317 315 315 314 315 315 315 316 317 314 314 314 315 314 315 314 313 312 313 312 318 316 313 311
290 289 287 290 290 288 280 280 282 283 276 281 281 286 286 290 295 296 296 298 299 298 299 300 299 300 302 303 304 306 308 308 309 311 311 312 311 311 312 312 314 314 315 316 316 316 317 318 318 319 320 320 320 321 321 321 322 321 322 322 323 322 322 323 323 323 323 322 321 320 319 319 318 317 316 316 314 314 315 315 314 314 314 314 313 314 315 314 313 313 315 313 312 312 314 314 312
290 287 290 291 293 290 287 281 275 273 278 278 281 285 283 282 284 293 294 296 296 298 298 298 298 300 302 303 304 306 308 309 310 311 311 311 311 313 313 313 314 315 316 316 317 316 316 317 318 319 319 320 321 321 321 321 321 321 322 322 322 323 323 324 323 324 323 322 321 321 320 318 318 318 318 317 315 314 314 320 315 314 314 313 314 314 314 314 313 313 312 312 312 312 313 313 314
297 294 293 294 282 287 282 279 277 279 276 274 277 283 281 281 286 289 294 296 297 297 297 298 299 300 301 302 304 305 306 308 308 310 310 311 311 312 313 314 315 314 316 317 317 316 316 316 317 318 319 320 320 320 320 322 322 322 323 322 322 322 323 323 324 324 323 322 322 322 320 320 319 319 321 320 316 314 314 314 315 315 314 314 313 313 314 313 313 313 313 313 313 311 311 312 313
296 296 293 294 286 284 285 283 282 277 275 275 281 280 285 287 285 290 294 295 296 296 297 298 299 300 301 302 304 306 306 307 308 309 310 311 311 312 313 313 314 315 315 315 316 316 317 318 317 318 319 318 318 319 320 321 322 322 323 322 322 323 323 324 324 323 322 322 323 323 322 320 320 321 320 322 319 316 314 313 313 314 313 313 312 313 313 313 313 313 313 313 313 312 312 312 313
288 288 287 290 289 291 288 286 285 284 273 271 275 276 280 284 290 293 295 296 297 298 299 299 300 300 300 302 304 305 306 306 307 308 309 310 311 311 311 312 313 313 313 316 315 316 318 317 317 318 318 318 317 319 319 321 321 322 322 322 322 321 322 323 323 322 322 322 322 324 322 323 322 320 321 321 321 320 316 314 313 314 313 313 313 312 313 313 313 313 313 312 312 312 312 312 313
291 286 290 287 287 288 285 283 284 282 283 277 273 275 279 287 295 294 294 296 296 298 299 300 300 300 300 301 303 304 306 306 307 307 307 310 310 310 310 309 309 309 310 310 313 314 316 316 318 318 317 317 317 317 318 320 320 321 321 322 322 322 322 322 322 322 323 323 322 322 323 323 321 320 321 321 321 320 319 315 313 313 313 313 312 312 312 312 312 312 312 313 313 312 311 311 311
Wind_Speed
5 4 2 2 2 2 2 5 3 2 2 0 0 2 1 0 2 2 3 3 2 2 2 2 6 4 1 1 1 5 6 2 2 5 3 1 2 7 4 5 5 7 7 6 6 5 6 8 9 9 11 10 10 10 10 10 10 10 10 9 10 10 11 11 11 11 11 11 11 11 10 9 9 8 8 7 8 8 8 8 8 9 8 4 2 4 5 9 12 13 11 1 6 6 3 5 7
3 4 2 0 0 1 0 1 3 1 6 3 0 0 2 4 1 0 2 2 1 2 0 2 3 3 3 1 4 2 8 8 4 1 2 2 6 6 7 6 7 8 6 6 5 6 4 4 10 11 9 10 10 10 10 10 10 10 9 10 10 11 11 12 12 12 11 11 11 11 10 10 9 8 9 9 9 8 8 10 10 9 8 7 6 6 9 12 7 3 5 7 5 5 2 5 6
2 4 3 2 3 3 2 4 0 1 4 2 2 3 1 2 1 1 1 1 2 4 2 1 2 4 6 6 6 7 1 5 6 4 3 4 2 4 7 6 6 7 7 5 5 5 5 6 11 10 10 10 10 10 10 10 10 10 10 10 11 12 12 12 12 11 11 10 10 10 10 9 9 9 8 7 8 9 9 9 8 9 9 8 8 9 8 5 4 3 2 3 3 2 2 4 5
4 0 3 2 0 3 1 4 4 5 4 4 0 3 1 2 1 0 2 0 2 0 1 5 5 2 2 8 5 0 5 2 6 4 2 3 3 4 5 6 6 6 6 5 5 5 5 6 9 9 9 9 9 9 9 9 9 9 9 10 11 11 11 12 11 11 10 10 9 9 9 8 8 9 8 7 8 8 9 9 9 8 8 9 10 8 3 4 7 6 1 4 2 4 3 3 5
2 0 1 2 4 1 4 1 4 3 4 5 4 3 3 4 2 1 0 1 2 2 2 1 2 3 2 5 3 2 4 2 6 6 2 3 3 4 5 5 6 6 6 5 5 4 3 7 8 8 9 9 8 8 8 8 8 8 9 9 10 11 11 10 10 10 9 9 8 8 8 8 8 8 8 8 8 7 8 9 9 9 9 9 9 3 1 6 6 7 3 6 3 2 4 3 2
2 1 2 2 0 2 6 4 3 2 3 4 2 4 4 3 3 3 1 1 3 3 2 4 2 2 3 4 3 2 4 2 2 4 2 3 4 3 5 5 5 6 4 4 4 3 4 7 8 8 7 7 7 6 6 7 7 8 8 9 9 9 9 9 9 9 9 8 7 7 8 8 8 8 8 9 9 9 9 9 9 9 10 10 9 6 3 5 6 5 4 8 3 4 3 2 2
0 2 3 4 2 4 5 6 5 4 4 6 3 2 4 0 1 3 3 1 2 7 4 2 2 2 3 1 3 3 4 4 1 3 3 2 3 6 6 5 5 5 4 4 4 5 5 7 7 7 7 7 6 6 7 7 8 8 8 9 9 9 9 9 9 8 8 7 7 7 7 7 7 7 7 8 8 9 9 8 8 8 8 9 9 7 5 6 8 7 1 6 6 5 4 5 4
1 0 1 4 1 4 3 5 5 4 3 8 2 0 1 0 1 1 2 1 2 2 1 1 1 3 1 1 2 0 6 4 5 5 4 3 5 6 6 4 5 3 3 4 4 4 6 7 7 7 7 6 6 6 6 7 7 7 7 8 8 8 8 8 8 8 7 7 7 7 7 7 7 7 6 6 7 7 8 8 7 7 8 9 11 10 7 5 5 6 3 6 6 7 8 8 11
3 2 0 6 4 2 3 3 3 2 3 1 2 2 2 2 1 1 2 0 1 2 1 1 1 2 1 2 3 2 2 5 6 6 5 5 6 4 3 4 4 4 4 4 4 3 4 5 4 4 4 5 5 5 6 6 7 8 8 8 8 8 9 8 8 8 8 7 7 7 7 6 6 6 6 6 6 6 7 8 8 7 7 8 9 8 7 6 3 7 3 5 8 4 5 6 6
0 1 1 2 4 5 2 1 3 3 2 1 1 2 1 0 2 2 3 3 2 2 3 1 2 3 3 4 1 3 3 4 2 6 5 5 4 4 5 3 1 1 3 3 3 3 3 3 3 3 4 4 5 6 7 7 8 8 8 8 9 10 10 8 8 7 7 7 7 7 7 6 6 6 6 6 6 6 6 6 7 8 8 8 7 7 6 5 4 4 1 6 9 5 7 8 12
1 4 2 4 4 3 3 5 3 2 1 3 3 1 1 0 2 1 1 3 3 3 2 3 4 5 2 2 3 1 2 3 5 3 4 4 4 5 3 3 2 1 2 4 4 3 3 4 5 5 5 6 6 6 7 7 7 7 7 8 9 9 8 6 7 7 7 7 7 7 6 6 6 5 6 6 6 6 6 6 7 7 8 8 7 2 2 4 3 4 4 8 12 12 7 7 11
1 1 3 3 2 5 4 4 1 3 3 2 1 2 1 2 1 1 1 3 2 2 0 1 2 2 2 1 2 2 3 5 3 2 4 4 4 3 3 3 3 2 0 2 3 2 3 4 4 6 7 7 7 7 6 6 6 6 6 7 9 8 7 7 8 9 10 10 9 7 8 8 7 6 6 6 6 6 6 6 7 7 7 7 7 6 3 3 4 3 2 7 5 6 6 6 5
2 1 5 4 0 0 2 3 2 0 2 2 1 1 1 1 0 3 3 5 2 2 2 3 4 2 1 1 0 1 4 1 2 3 3 4 3 3 3 3 3 1 0 1 1 2 3 3 3 3 4 8 7 8 8 7 7 7 6 6 7 7 9 11 11 11 12 12 12 10 10 9 9 8 7 6 5 6 6 6 6 6 6 6 7 7 5 3 3 3 4 7 3 5 4 2 4
2 2 2 0 1 1 2 2 1 2 1 1 1 1 1 2 2 3 3 6 6 3 1 1 2 2 2 2 1 2 0 0 1 2 3 3 3 3 3 2 2 2 1 0 1 2 3 3 3 3 3 3 3 5 6 7 9 10 9 8 8 9 12 12 12 12 12 13 13 12 12 11 11 10 8 7 5 5 5 5 6 5 5 7 6 5 5 5 5 3 3 4 5 3 4 6 8
1 2 5 3 1 1 1 2 4 2 2 1 0 1 2 3 2 5 7 5 3 1 1 2 1 1 2 5 2 2 2 2 2 3 4 3 4 3 3 3 3 3 2 1 1 2 3 3 3 2 2 4 5 5 5 7 12 12 12 12 12 13 12 12 12 12 13 12 13 12 12 12 12 11 10 7 7 7 5 5 4 4 4 5 6 5 4 5 7 7 5 4 3 4 4 2 4
3 5 3 2 0 2 1 1 0 3 1 1 1 4 6 2 5 2 3 1 2 2 4 2 4 1 1 2 0 3 3 4 3 4 3 4 4 4 4 4 3 2 1 1 1 1 2 3 3 5 5 5 5 6 6 6 9 12 13 13 13 13 13 12 12 12 12 12 11 11 11 8 8 8 12 8 8 8 7 5 4 4 4 5 4 5 4 5 6 7 7 5 4 1 1 2 2
2 4 1 3 1 1 2 2 4 1 1 1 1 2 2 2 2 3 3 4 5 4 3 3 2 2 2 1 2 6 4 4 5 4 3 4 4 3 4 4 3 3 2 2 2 3 3 5 4 6 5 5 5 5 5 5 7 11 9 12 13 13 12 11 11 9 8 8 8 9 9 6 5 5 6 5 9 7 8 6 4 4 4 5 4 5 4 2 3 5 6 5 4 3 2 3 4
2 1 4 1 1 1 2 2 4 1 3 2 1 2 7 1 1 0 2 8 4 3 4 2 4 5 2 2 3 6 4 5 3 3 3 2 2 2 3 1 2 2 2 3 3 2 4 4 5 5 5 5 5 5 4 4 5 7 6 5 5 6 7 7 5 4 6 4 8 6 5 4 5 5 5 7 5 6 7 9 6 6 5 5 4 5 3 1 2 2 3 3 5 5 5 2 2
2 1 2 1 3 1 3 2 3 0 2 4 1 2 3 1 3 0 4 2 3 5 4 3 7 6 6 5 6 6 4 4 4 3 2 1 2 3 2 1 0 1 2 2 4 4 3 4 3 5 4 3 5 4 4 4 5 4 4 4 4 5 5 4 4 4 5 5 5 5 5 5 5 5 5 7 6 9 7 9 8 7 7 6 6 6 4 2 1 1 2 4 5 5 3 2 2
0 1 2 1 4 1 2 1 1 1 5 4 4 0 4 2 2 0 3 4 3 4 3 2 4 5 4 3 5 4 4 3 3 2 1 1 2 3 3 2 2 1 1 1 2 2 3 5 3 3 4 4 5 4 4 5 4 4 4 3 4 4 4 4 4 4 4 5 5 5 5 5 5 5 7 10 9 6 6 7 9 8 8 8 9 5 5 5 5 6 5 4 3 3 2 3 3
1 7 2 1 3 2 0 2 0 1 3 5 4 1 4 0 1 2 6 5 2 2 3 2 5 8 5 3 3 3 3 3 2 1 1 1 1 1 2 4 3 2 1 1 2 3 3 4 4 4 3 4 4 4 3 4 3 4 3 4 3 4 4 4 4 4 4 5 6 5 5 5 5 5 5 5 5 5 5 5 5 4 4 4 7 3 3 3 3 3 3 3 2 3 3 2 2
4 8 4 2 0 3 1 0 2 1 5 7 4 4 2 3 4 3 2 2 2 4 3 2 3 3 5 4 3 2 2 2 0 0 1 3 3 4 1 1 1 0 0 4 2 3 3 3 4 3 4 4 4 4 3 3 4 4 3 2 3 4 4 4 4 5 5 5 5 5 5 6 6 6 5 6 5 6 5 5 5 4 4 3 4 2 2 2 2 2 2 2 2 2 2 1 1
2 0 1 1 0 3 1 1 2 5 4 5 3 1 3 2 3 1 4 1 2 3 3 5 6 4 3 3 3 2 1 2 1 2 2 2 2 3 1 2 3 2 2 2 1 2 2 3 3 3 4 4 4 3 4 4 4 3 3 3 4 4 3 4 5 5 5 4 5 5 5 6 6 5 6 5 6 5 5 5 5 3 4 4 4 3 3 2 2 2 2 2 2 2 2 1 1
7 2 1 1 3 4 1 2 5 4 7 2 2 3 3 3 4 0 3 1 3 0 4 6 6 4 4 3 1 3 3 3 3 2 4 3 3 3 2 2 2 2 3 1 1 1 3 3 2 4 4 4 3 3 4 5 3 4 3 3 4 2 3 4 4 5 4 5 4 5 3 4 5 6 5 5 5 5 5 5 4 5 4 4 4 2 3 3 3 2 2 2 2 2 1 1 1
3 2 1 1 2 2 3 6 7 8 5 3 6 4 0 1 3 2 2 2 1 3 5 6 5 4 3 3 2 1 2 2 2 2 2 3 3 2 0 0 2 3 3 1 0 2 1 2 3 5 4 4 3 3 4 3 4 4 4 4 3 2 3 3 4 4 5 4 4 5 4 6 5 5 5 5 4 5 5 5 5 5 5 5 5 4 3 4 3 3 2 2 2 2 2 3 2
1 1 1 1 1 3 5 8 6 6 3 4 8 4 1 3 3 3 1 1 2 3 5 4 4 3 1 1 1 2 3 3 2 1 1 2 1 1 1 2 3 4 4 2 1 1 1 3 5 4 3 3 2 4 3 5 4 5 3 3 2 2 2 3 3 4 4 4 5 4 4 4 4 4 5 5 5 5 5 5 5 5 5 5 5 5 5 4 4 4 3 2 2 2 2 3 3
2 4 3 3 1 4 2 7 2 2 2 0 6 3 1 2 2 1 1 3 4 5 4 3 3 2 1 1 1 1 2 3 3 1 1 1 1 1 1 2 3 4 3 3 2 2 1 4 4 3 4 3 4 4 2 3 2 4 3 2 2 2 2 3 4 4 5 5 5 5 5 5 4 5 5 5 4 4 4 5 5 5 6 6 5 5 5 4 4 3 4 4 4 3 2 1 2
3 6 4 7 4 5 5 6 4 3 1 1 8 2 1 3 1 1 2 3 4 6 3 3 2 2 2 2 2 1 2 2 0 0 2 1 3 4 4 6 5 4 4 4 3 1 3 4 4 2 6 7 6 2 1 2 3 2 2 2 2 1 1 2 3 4 5 5 4 5 5 5 5 5 5 5 5 5 5 5 5 5 5 5 5 5 5 4 4 4 4 4 3 3 3 2 2
1 2 3 2 3 4 2 4 2 1 1 1 1 3 4 6 1 1 1 3 3 4 4 3 2 2 2 2 2 2 3 2 0 2 4 3 2 2 5 4 6 5 2 3 3 1 4 4 4 2 6 5 3 1 2 1 2 2 2 2 1 1 1 2 4 4 4 4 4 5 5 5 4 5 5 5 5 4 5 6 6 5 5 5 5 5 5 5 5 6 6 5 4 4 4 4 4
1 6 2 3 4 1 1 2 2 2 0 3 2 2 6 4 4 3 1 3 2 2 1 1 1 2 2 3 3 3 3 2 2 3 3 3 3 3 4 3 2 3 4 2 2 3 2 3 3 3 5 4 3 2 1 3 3 2 1 1 1 1 2 2 3 4 3 4 4 4 5 5 5 5 5 5 4 5 5 5 5 6 5 5 5 5 6 5 5 6 6 5 6 5 6 6 5
1 1 5 1 1 1 2 3 3 2 1 5 3 3 4 4 5 1 2 3 3 1 1 1 2 3 3 3 3 3 5 2 3 3 3 3 3 3 3 2 2 2 2 3 4 4 3 3 3 3 4 3 1 0 2 2 2 2 2 1 2 0 1 2 3 4 4 4 4 5 5 4 5 5 5 4 5 5 5 5 6 5 5 5 5 5 5 5 5 6 6 7 6 6 5 5 5
2 2 2 4 1 2 4 3 8 4 2 3 3 3 2 4 5 2 3 3 3 2 2 2 2 3 3 3 3 4 5 4 3 3 3 3 3 3 4 5 3 3 4 5 4 3 3 3 3 4 3 3 1 0 2 1 2 2 2 1 1 1 2 3 4 4 4 4 4 5 5 4 4 5 5 5 5 5 5 5 5 5 6 5 5 6 6 7 6 5 6 6 7 7 7 7 5
5 2 2 1 1 2 2 1 3 6 3 2 1 1 2 2 4 2 3 4 3 2 3 3 3 4 3 3 3 3 4 6 5 4 4 2 3 3 4 4 6 6 5 5 5 4 3 3 3 4 3 3 2 1 2 2 2 3 3 2 0 1 3 4 4 4 4 5 5 5 5 4 4 4 5 5 5 5 5 5 5 5 5 5 6 6 6 5 6 6 6 5 5 5 7 8 7
2 2 0 2 0 0 1 4 2 2 5 1 1 0 4 2 5 1 3 4 3 3 4 3 3 4 4 3 4 4 4 5 8 6 5 3 2 3 4 4 4 4 4 5 5 6 6 4 4 4 3 1 1 2 2 3 2 2 3 3 1 2 2 3 4 4 5 4 4 4 4 4 3 5 5 5 5 4 4 4 4 6 5 5 5 6 6 5 5 5 6 5 5 5 6 7 8
2 1 1 4 1 3 3 3 3 4 0 2 0 3 9 7 2 2 3 3 4 5 3 3 4 4 5 4 4 5 5 6 10 4 4 4 3 2 2 2 3 4 4 5 4 3 3 3 2 1 2 2 2 1 1 3 2 2 2 3 3 2 3 3 2 4 4 4 4 3 4 4 4 4 5 5 5 4 5 5 5 5 5 6 6 6 6 6 6 5 6 6 5 4 5 5 6
2 7 5 3 1 2 2 4 2 10 3 3 3 5 6 6 2 1 2 3 4 4 2 3 4 4 4 5 5 5 5 8 7 1 3 4 3 2 2 2 2 3 3 3 3 3 3 1 1 0 2 2 2 2 1 2 3 3 3 2 3 3 3 3 4 3 3 5 4 4 4 4 4 4 5 4 4 4 4 4 5 5 5 5 6 7 6 6 6 7 7 6 7 6 6 6 7
3 2 3 3 3 3 3 2 2 5 3 6 6 4 4 6 2 2 3 2 3 4 5 5 4 4 5 5 6 6 6 11 2 1 3 4 4 2 3 3 3 2 2 3 3 3 3 3 3 4 3 3 3 3 1 1 0 0 1 2 0 2 2 2 3 4 4 3 4 4 4 5 4 5 4 5 5 4 4 4 5 5 5 5 5 5 5 6 5 4 3 3 6 7 7 8 9
1 2 2 3 2 4 2 0 4 6 7 3 3 2 7 5 4 2 3 3 6 8 7 7 7 5 5 5 7 7 8 4 4 4 2 1 1 2 3 3 4 4 3 3 5 5 3 3 4 4 3 3 3 3 3 2 1 1 1 1 0 2 1 2 2 3 3 4 4 3 4 4 4 4 4 3 3 4 4 4 5 5 5 4 3 4 5 5 7 7 5 5 3 4 5 6 7
1 1 1 1 6 3 2 2 3 5 2 4 1 4 7 4 4 2 6 7 3 2 5 6 4 5 5 6 7 7 5 7 4 4 2 2 1 2 3 3 3 3 4 5 3 2 3 4 4 3 3 4 3 2 3 2 2 1 1 1 2 1 1 2 3 4 2 3 4 3 3 4 4 4 5 3 3 4 4 4 4 4 5 4 5 6 6 7 5 6 6 4 5 3 3 4 7
4 2 1 5 3 1 2 2 3 2 2 2 3 3 6 5 3 3 4 5 2 2 4 6 4 6 7 8 4 4 6 7 7 5 2 1 2 2 2 3 4 2 3 2 3 4 3 3 3 3 4 3 3 3 2 1 2 2 1 2 1 0 1 2 2 3 2 3 4 4 2 3 3 3 4 3 3 4 4 4 4 4 4 4 4 5 5 6 6 6 6 5 3 5 5 5 5
2 4 3 3 1 2 2 3 2 1 1 3 4 4 6 4 4 3 2 2 3 2 1 4 4 6 5 4 5 4 7 7 7 6 2 0 2 5 6 3 3 4 4 5 4 5 4 5 5 5 4 5 4 3 2 3 3 2 2 1 1 2 1 3 3 3 3 2 2 3 3 3 3 3 3 4 2 3 3 4 4 3 4 4 3 4 4 3 3 3 4 5 6 3 5 4 5
3 4 9 4 2 3 3 5 6 2 2 1 3 2 3 4 5 6 6 2 2 1 3 6 6 5 4 6 9 6 5 5 6 7 4 1 3 3 1 3 4 4 5 6 5 4 4 4 3 3 3 3 4 4 3 4 3 3 0 1 3 2 4 4 3 2 3 3 3 3 5 3 4 2 3 3 3 2 5 4 4 4 4 4 3 3 3 4 6 6 5 3 5 5 2 6 6
2 3 10 6 4 7 9 6 5 1 2 3 1 4 2 5 2 3 4 4 5 3 3 6 5 5 4 7 7 6 6 6 4 4 3 1 1 3 3 4 5 5 7 3 3 4 4 4 4 4 5 4 3 3 4 3 3 2 3 2 2 3 2 4 3 2 3 4 3 4 4 4 3 2 3 3 3 3 3 3 4 3 3 3 2 3 5 5 4 4 4 5 4 3 4 6 6
1 2 5 7 8 9 10 10 5 3 1 1 5 4 1 4 4 2 4 3 5 5 6 6 6 6 6 6 6 5 5 4 5 6 3 1 3 4 6 6 5 8 4 3 4 3 5 6 5 5 4 4 4 3 4 4 5 4 3 3 2 3 4 4 3 3 2 2 4 4 4 4 4 2 3 4 3 2 2 3 3 3 3 2 1 4 3 3 3 4 4 3 3 4 4 5 5
3 2 9 8 9 8 8 8 4 1 3 2 2 1 1 2 4 4 2 1 3 7 7 7 7 7 7 6 6 5 4 4 3 5 5 3 3 5 5 5 5 3 3 5 6 6 4 3 3 3 4 4 4 5 5 4 4 4 4 4 3 4 4 4 2 2 3 2 4 3 3 4 3 3 2 3 3 3 1 1 2 2 2 3 1 2 2 3 4 4 5 5 5 4 4 2 4
3 5 7 7 6 4 4 5 5 1 2 3 4 1 2 6 5 4 2 1 5 8 7 8 8 8 7 6 6 4 4 3 3 4 4 3 3 3 2 2 2 5 3 3 3 3 3 3 4 4 5 5 4 5 5 5 4 3 3 4 4 5 3 3 2 4 3 2 3 4 3 4 4 3 3 2 3 2 2 1 2 2 1 2 1 1 1 2 3 4 3 4 3 5 3 3 4
3 5 7 6 8 5 4 6 3 3 1 4 4 4 3 1 3 5 3 4 5 2 3 3 3 5 7 6 6 4 4 4 4 4 3 3 2 3 1 3 4 3 2 3 3 3 3 4 4 5 6 3 4 5 5 6 5 4 5 5 5 5 4 3 3 5 4 3 4 5 3 4 3 4 3 2 3 2 2 0 2 4 2 1 1 1 1 0 2 2 2 2 4 4 3 3 3
6 2 3 5 3 6 4 4 5 3 2 4 2 4 3 1 3 4 8 3 1 3 4 5 5 6 8 7 5 5 4 4 3 2 3 3 1 0 0 3 4 3 2 3 4 3 3 4 3 4 4 4 4 4 5 5 4 5 4 4 5 6 4 4 4 6 5 4 4 5 3 3 4 3 2 3 3 3 2 2 2 2 2 1 2 2 3 0 0 1 1 2 2 1 2 3 4
8 5 8 3 2 3 1 5 1 1 1 1 1 3 2 4 5 4 7 8 6 4 4 4 4 6 6 7 5 4 4 3 3 3 1 2 2 2 2 4 4 4 4 4 4 3 3 3 3 4 6 4 4 4 5 5 4 5 6 6 6 4 4 5 5 5 5 4 5 5 4 4 3 2 4 4 5 5 3 3 4 4 3 3 3 3 3 1 1 1 1 1 2 2 2 2 3
7 4 3 3 1 3 0 2 1 4 3 4 1 1 1 3 4 3 5 7 6 5 5 3 3 5 6 5 3 2 3 4 4 2 2 2 3 3 3 4 4 4 4 4 3 3 3 3 3 3 7 2 3 4 5 5 6 6 5 6 6 5 5 5 5 6 6 5 4 5 5 5 5 5 5 6 6 4 4 5 3 4 3 4 3 4 3 3 1 1 1 2 3 2 1 2 1
0 2 0 3 5 1 1 2 0 1 4 4 3 0 2 1 2 4 5 6 6 3 3 3 2 3 4 3 2 2 3 3 3 3 3 3 3 4 4 3 3 3 4 4 3 3 2 3 3 4 5 4 3 4 3 5 6 6 6 6 5 4 5 5 6 6 6 5 5 5 6 4 5 6 6 7 5 4 5 4 5 5 4 5 4 3 3 3 3 2 2 2 3 2 1 1 3
0 2 3 5 0 6 2 2 2 1 0 1 1 1 2 3 2 5 3 3 3 2 1 0 1 2 0 0 2 3 3 3 3 3 3 4 4 3 3 4 4 4 3 3 4 3 3 4 3 4 5 4 2 3 4 5 6 5 4 5 6 5 4 4 5 5 5 5 6 6 6 5 6 5 5 4 5 4 5 5 4 5 5 4 4 4 5 4 4 4 4 3 4 1 3 3 3
2 2 1 1 3 10 6 1 1 1 4 0 1 5 4 7 2 2 6 2 2 3 2 1 2 2 1 2 3 4 3 3 4 4 4 5 3 3 3 4 4 4 4 5 4 4 4 4 3 4 5 4 4 4 5 4 4 4 5 5 5 5 6 6 6 6 7 6 5 6 6 6 5 5 5 4 4 5 5 5 5 5 5 5 5 5 5 5 4 4 4 4 5 3 2 5 3
3 2 2 2 2 4 4 1 2 4 1 2 2 1 5 4 1 4 4 2 2 2 2 3 3 2 1 4 4 4 4 3 3 3 3 3 3 4 4 4 4 5 5 5 5 3 3 3 4 5 4 5 6 5 5 5 5 5 5 6 6 6 6 6 6 7 5 5 5 5 5 5 6 6 5 4 5 5 5 5 5 5 5 5 6 5 5 5 4 4 5 5 5 3 4 4 4
2 1 3 1 1 1 4 4 1 1 1 3 3 1 3 4 2 3 2 3 4 3 2 3 4 4 5 4 5 4 2 2 3 4 4 4 4 4 5 6 5 5 5 5 5 3 3 4 4 4 6 5 4 3 3 3 4 5 4 5 5 5 5 5 5 5 4 5 6 6 6 7 5 4 4 1 2 4 4 5 5 6 5 6 5 6 5 4 4 5 5 5 5 3 4 5 5
3 2 3 0 4 2 1 1 2 5 0 2 3 3 2 4 4 3 5 6 5 4 3 5 6 6 5 5 5 5 5 4 4 4 4 4 5 5 5 6 7 7 5 5 4 3 5 5 4 5 5 4 4 4 4 5 5 5 5 3 4 5 5 5 5 5 5 6 7 6 6 5 7 3 4 6 5 6 6 6 6 6 6 5 6 6 5 5 4 5 5 5 5 3 4 5 6
4 3 2 2 3 1 4 2 2 0 4 3 1 2 4 4 6 4 7 7 7 7 8 6 7 7 6 5 6 5 5 5 5 4 5 5 6 6 6 5 6 5 4 4 4 6 7 4 5 6 7 6 6 6 4 6 4 5 5 6 6 5 6 5 5 5 6 6 6 6 6 7 2 5 6 6 7 7 7 7 7 6 7 6 6 6 5 4 5 6 5 6 6 5 5 6 4
1 3 1 5 1 1 1 0 1 2 1 1 2 4 7 8 2 5 5 6 5 7 6 7 7 7 6 6 6 5 5 5 5 4 4 5 6 6 5 5 4 4 6 6 5 4 5 6 7 6 5 6 6 7 6 6 5 5 6 6 7 5 5 4 5 5 6 6 6 6 7 4 6 5 7 8 8 7 6 7 7 7 7 7 6 7 5 4 5 6 6 5 5 6 6 6 4
Wind_Direction
152 123 125 136 85 113 62 2 134 311 70 245 359 22 237 247 219 15 320 331 316 89 8 345 15 28 24 283 100 98 24 46 23 153 209 239 59 62 39 52 49 50 43 29 19 11 19 349 41 43 45 55 55 53 54 54 52 51 51 51 52 53 53 50 45 40 35 31 29 29 29 33 33 27 22 29 27 27 27 30 25 21 38 41 358 18 14 42 39 39 44 113 228 236 137 83 83
134 113 93 240 131 64 224 127 92 360 40 68 23 116 258 306 41 319 288 274 217 122 228 59 38 28 83 138 118 191 39 41 58 80 202 86 71 50 35 38 49 50 37 26 25 13 4 351 42 44 48 48 49 49 49 49 48 47 46 45 47 48 46 46 44 39 36 31 28 29 29 27 34 31 28 21 16 24 26 32 21 29 26 29 27 42 36 38 52 108 172 221 239 326 72 98 94
105 110 70 65 30 85 97 43 110 65 101 73 280 193 317 345 38 297 292 347 116 154 203 48 127 42 338 23 38 27 44 46 49 39 45 356 37 13 25 34 50 50 48 32 22 6 3 19 38 39 42 46 46 45 46 47 46 45 44 43 44 45 46 45 43 41 37 33 29 27 28 26 26 37 26 26 17 22 20 34 32 24 24 25 31 40 46 54 77 70 36 306 329 286 42 89 106
109 56 147 79 132 20 67 30 84 121 108 194 309 274 188 212 187 234 322 358 151 41 325 24 44 292 26 35 7 32 46 52 35 15 81 33 34 30 27 37 35 44 43 32 13 13 10 31 43 43 47 47 45 43 44 44 44 44 43 44 46 46 45 43 40 39 36 35 31 29 27 28 28 31 37 31 21 18 19 26 36 24 21 31 41 43 64 76 59 79 46 280 255 237 249 121 115
111 295 125 108 108 34 99 121 137 109 120 200 167 260 226 215 212 267 258 36 44 32 41 85 49 333 88 72 340 63 357 326 49 37 59 46 29 42 36 38 38 42 33 23 22 12 357 35 45 45 45 48 47 46 44 45 45 42 42 42 43 44 42 41 40 39 37 36 33 29 30 31 30 31 29 31 32 30 24 23 26 23 23 40 51 76 41 57 51 61 6 292 307 342 326 103 116
61 29 360 103 139 170 51 49 60 129 214 161 156 238 218 205 201 223 237 329 79 53 77 76 155 266 34 19 18 59 339 44 2 62 31 35 39 40 46 43 45 42 17 18 13 350 348 41 45 45 48 48 50 52 49 49 47 45 45 45 45 43 42 39 38 38 39 35 31 30 30 33 34 32 32 29 30 26 31 27 26 21 22 29 46 53 52 71 65 59 284 268 302 301 340 353 164
250 44 354 25 23 58 129 132 168 182 259 165 211 222 206 225 134 359 321 10 15 46 12 113 127 102 76 63 103 76 60 19 37 24 44 92 52 39 38 45 53 32 13 4 4 4 335 42 38 37 40 39 40 40 43 42 41 40 40 41 40 39 37 35 36 36 36 34 31 28 27 29 31 33 35 32 30 30 30 36 30 21 17 28 35 43 47 59 76 79 4 302 298 319 330 320 343
81 140 304 97 45 55 86 154 178 163 225 175 220 181 343 346 78 78 333 76 309 53 345 89 266 109 200 36 165 77 58 46 49 76 73 61 56 42 42 44 48 19 3 358 9 351 3 22 30 30 28 33 34 35 38 41 41 41 40 40 39 40 39 39 36 36 32 30 27 23 24 24 27 29 33 32 30 32 30 37 39 28 17 28 33 36 41 35 65 76 359 313 332 348 337 353 32
331 92 39 70 62 42 73 143 205 222 281 281 307 178 47 95 112 122 41 4 93 37 321 299 312 73 251 44 38 350 65 26 60 75 68 60 54 40 44 43 48 3 357 355 343 333 340 341 23 36 27 31 33 38 37 38 39 37 34 32 31 31 34 31 31 30 30 28 23 20 20 19 22 23 24 25 30 28 29 27 30 30 32 37 46 40 37 20 35 89 322 333 329 357 356 50 68
319 82 293 112 127 83 63 296 119 221 232 292 360 326 22 40 145 113 134 61 142 93 312 264 75 107 116 91 34 8 18 348 120 63 46 44 39 42 42 37 73 27 348 344 321 322 320 326 40 33 37 33 30 30 31 31 32 33 31 29 26 25 31 21 31 27 27 25 22 19 15 17 20 17 17 23 25 25 31 25 23 25 27 35 54 28 25 35 8 51 90 6 337 351 11 51 63
297 13 139 71 46 119 159 214 265 326 312 330 331 248 229 312 102 94 105 132 173 147 179 105 54 114 105 61 48 355 340 20 60 56 24 29 27 34 19 6 22 73 1 316 295 314 314 335 11 16 32 22 20 24 24 26 26 24 28 31 31 32 36 25 22 20 22 19 22 20 28 29 16 22 17 25 26 25 26 30 27 27 24 23 65 62 6 55 42 357 22 68 340 340 337 37 55
331 18 17 101 149 155 215 162 242 257 308 10 300 276 182 189 118 93 139 94 64 135 238 342 174 143 55 81 21 305 347 53 51 27 18 16 25 21 32 16 31 44 46 279 298 317 340 353 2 354 2 17 13 7 11 16 14 14 15 36 40 31 37 42 45 40 36 31 32 30 28 35 32 26 22 21 22 16 16 22 25 24 19 21 24 43 28 22 44 14 337 125 146 287 328 10 67
94 78 73 75 288 73 158 110 225 112 355 277 207 287 121 86 116 149 95 92 44 80 348 314 143 75 61 67 229 337 63 4 16 26 5 21 4 17 38 35 35 50 311 267 340 330 341 346 338 337 346 10 3 359 355 4 13 15 18 31 49 36 52 56 53 47 41 39 39 36 33 31 31 30 29 19 15 360 14 15 14 18 17 18 29 32 16 16 50 27 9 55 119 199 176 29 300
106 178 116 132 52 105 117 164 34 115 272 252 245 269 80 58 32 105 112 59 12 57 294 354 73 126 69 75 342 33 324 326 28 13 25 2 19 39 36 35 32 10 344 295 308 315 327 312 324 341 359 3 1 4 11 30 48 53 52 64 70 60 59 53 49 45 42 40 41 39 34 29 25 18 21 28 9 11 11 16 10 16 20 27 29 29 21 360 352 11 33 22 63 34 78 161 222
29 134 82 116 32 49 251 113 180 148 225 174 359 70 50 33 20 68 77 109 25 296 310 39 54 33 240 142 226 197 190 153 88 29 35 25 40 36 41 40 37 18 350 350 356 327 303 321 355 359 28 47 46 48 39 37 56 57 67 75 73 67 60 54 47 42 40 37 37 38 35 26 19 13 24 23 24 32 22 29 19 23 26 34 35 27 29 352 0 13 16 27 12 4 17 218 191
144 80 81 105 121 117 241 103 153 107 206 87 3 129 75 358 27 68 334 146 174 15 39 343 15 35 302 100 269 146 136 91 68 54 49 42 28 37 43 33 44 26 6 38 30 345 348 38 44 61 56 54 57 52 43 38 42 55 64 70 68 63 58 51 45 40 34 34 29 28 29 28 14 4 14 16 31 27 31 39 38 17 22 38 44 57 58 10 359 353 4 0 7 263 244 49 35
66 85 49 29 134 138 218 144 134 197 247 108 194 38 99 349 357 71 39 52 83 19 30 28 337 8 80 74 143 112 104 99 79 59 50 33 34 31 33 23 28 24 22 36 36 27 41 68 59 69 56 55 55 56 48 41 49 52 43 54 56 57 53 47 43 33 34 21 27 19 18 16 9 359 358 17 21 16 17 29 21 14 11 23 26 54 62 348 348 348 360 343 349 359 18 75 54
55 81 115 43 195 100 192 156 176 205 127 181 179 112 104 90 357 102 48 43 73 47 54 355 52 55 71 104 103 93 84 72 59 82 43 44 36 52 68 21 33 60 18 38 42 49 85 64 71 77 69 57 62 59 55 49 40 48 45 40 47 45 47 43 26 30 20 11 14 10 8 2 4 353 353 18 17 14 2 14 16 21 7 6 16 36 75 330 334 10 331 10 38 54 69 64 52
84 123 83 178 177 275 158 187 203 141 165 165 116 82 105 182 127 245 83 72 21 57 17 37 81 65 71 66 79 76 77 58 74 77 95 114 115 126 147 97 95 167 66 51 46 51 79 89 71 80 84 81 74 64 62 53 49 48 43 37 33 42 38 36 21 19 12 6 7 4 358 349 359 357 353 13 24 17 9 15 21 23 22 22 35 39 51 49 332 10 36 43 59 42 31 39 23
113 106 68 319 209 196 203 203 158 38 140 122 110 118 82 118 79 52 106 104 69 119 136 86 106 121 103 84 77 76 80 71 73 105 113 163 161 156 151 152 161 127 127 76 81 51 79 90 82 93 92 84 80 74 66 64 59 56 47 33 32 27 27 25 20 18 10 4 0 0 357 344 357 354 355 3 16 11 3 11 18 19 15 6 23 40 20 30 20 15 25 51 34 47 57 34 27
350 47 335 131 201 115 246 175 218 350 134 120 116 110 90 26 77 87 136 84 3 262 238 171 176 151 134 104 93 83 92 87 72 78 120 150 215 200 188 183 159 174 206 286 47 67 74 101 98 77 79 72 80 64 68 64 72 71 50 35 31 18 17 19 16 12 8 6 360 358 353 354 354 355 353 359 11 3 9 14 16 17 9 354 3 27 24 10 14 9 1 20 27 35 43 38 28
82 175 224 175 84 60 310 164 81 89 97 101 109 113 128 127 63 88 110 117 231 208 234 160 134 139 134 133 125 88 103 122 71 82 189 190 185 179 198 191 222 193 187 67 64 89 91 109 117 114 81 71 75 74 65 52 54 57 53 40 40 19 15 17 10 9 10 5 1 353 359 4 358 357 360 0 6 9 10 6 10 3 10 343 352 355 15 25 24 11 339 354 357 32 53 46 31
91 137 181 110 163 120 308 81 69 107 99 113 108 154 91 79 106 126 93 109 254 242 168 133 122 125 122 100 112 107 126 175 217 216 208 200 217 223 214 185 144 118 68 105 356 125 128 108 105 106 88 82 63 67 53 48 32 23 38 53 54 13 17 24 6 8 8 6 5 353 9 356 358 357 0 3 6 5 10 4 3 356 342 345 340 343 351 7 22 15 356 342 335 2 41 26 355
90 71 3 45 52 61 241 90 99 85 110 118 156 91 84 119 77 110 67 338 285 321 122 115 111 108 108 110 122 168 193 203 231 243 239 223 214 210 212 182 170 124 98 89 72 147 135 120 106 91 88 82 66 56 58 43 22 35 23 37 37 36 38 14 358 5 8 4 357 354 356 9 3 358 359 5 358 2 12 359 2 11 4 349 332 354 347 347 358 16 355 1 347 341 330 324 330
67 53 17 341 58 358 73 101 86 89 71 101 76 75 15 142 148 82 16 52 57 94 99 97 99 96 92 123 173 200 244 258 261 272 255 245 236 259 269 197 121 109 121 139 166 140 153 118 88 76 74 72 58 55 60 38 29 44 29 33 35 43 27 352 340 0 11 349 360 357 353 1 359 1 2 359 344 16 2 4 5 6 3 357 350 354 6 345 357 357 3 343 335 330 330 329 334
62 119 89 29 49 66 106 72 79 89 88 108 79 75 69 139 95 63 194 109 127 109 91 97 99 108 123 176 202 212 231 250 269 304 256 284 306 236 274 188 147 138 180 176 171 185 85 64 75 80 92 94 55 61 32 47 25 51 29 32 10 38 359 329 353 10 355 4 355 352 356 2 11 355 354 358 14 11 0 1 11 3 1 357 3 356 347 350 345 347 5 14 356 347 358 325 333
130 90 84 93 350 109 36 109 67 60 85 110 108 129 197 266 60 7 115 152 130 99 97 91 116 163 212 240 242 226 222 252 243 265 328 6 4 212 227 193 172 182 158 178 201 210 87 79 90 137 138 100 86 78 55 53 31 58 45 50 37 16 331 338 356 357 7 1 350 353 2 6 10 7 9 360 17 18 9 12 10 354 13 6 356 355 348 348 335 332 341 342 347 346 346 322 331
74 128 79 38 52 68 98 72 91 91 24 64 119 146 289 309 67 195 207 165 143 126 135 130 148 205 242 251 252 249 230 262 129 143 255 274 245 205 189 183 192 185 172 190 196 205 90 114 141 146 74 31 355 52 55 72 68 52 76 79 54 337 315 337 349 5 358 349 354 360 1 5 12 7 12 10 22 12 13 8 2 16 10 358 360 354 354 353 346 335 341 341 328 334 330 350 4
137 96 69 349 33 55 97 119 195 79 62 130 82 62 10 353 31 313 202 130 133 139 152 178 195 240 272 286 289 274 243 262 160 193 231 230 253 216 210 213 177 180 210 169 190 153 144 139 128 125 99 111 210 229 87 47 73 67 75 93 68 5 347 352 4 351 336 340 355 358 360 0 16 11 6 17 10 15 19 16 7 7 7 358 354 356 2 4 7 7 2 354 354 353 354 356 352
104 35 108 23 14 27 178 91 113 56 245 115 36 50 290 287 271 293 170 115 89 106 175 207 248 276 287 292 286 287 282 278 265 240 239 239 230 213 221 238 220 181 172 160 131 189 174 136 131 144 115 154 192 218 82 43 34 62 82 65 85 43 348 17 349 346 335 344 350 355 1 1 14 3 7 8 18 16 18 20 2 9 358 353 7 12 19 6 15 21 7 13 12 17 11 356 356
97 288 58 72 58 269 265 157 162 113 190 123 45 110 289 274 286 272 172 130 132 190 298 320 305 295 289 291 285 282 285 256 253 260 250 229 227 214 203 228 219 196 139 148 179 198 162 149 152 152 151 184 150 82 69 54 41 43 41 88 96 96 348 13 348 350 353 342 345 2 5 360 16 6 7 14 12 24 24 18 16 351 345 360 24 15 19 19 22 24 13 13 2 12 3 360 4
12 55 310 328 85 275 306 283 151 165 36 73 59 76 238 266 262 234 167 136 131 204 237 278 286 276 276 275 279 278 275 288 273 260 236 218 211 224 198 211 190 197 188 184 192 171 171 180 160 142 162 151 199 112 74 37 24 19 12 66 54 36 12 13 357 353 338 338 355 3 6 355 18 6 6 16 30 25 32 31 10 357 3 15 26 19 26 23 3 20 21 21 9 4 2 357 2
355 74 277 301 23 256 350 256 202 140 106 68 111 232 324 337 317 237 155 151 148 203 266 274 275 275 276 279 276 274 292 295 294 270 262 208 221 214 216 215 193 198 183 177 185 170 180 197 153 150 177 190 175 83 85 58 38 34 23 25 340 23 24 356 346 353 4 4 352 6 359 350 8 15 15 27 29 26 27 37 13 11 5 25 31 23 28 16 21 11 15 22 27 359 360 355 354
324 31 185 211 186 348 267 303 144 159 118 207 167 250 242 235 311 245 166 162 155 222 257 284 293 287 284 285 282 282 280 280 274 276 282 283 220 215 222 217 207 189 191 187 185 173 184 186 165 178 185 158 121 187 117 85 56 56 36 10 26 28 351 344 337 359 8 352 352 3 350 348 5 12 23 32 44 27 32 40 23 19 14 28 35 32 22 8 25 28 14 13 11 7 11 356 346
227 121 318 310 260 192 213 167 240 124 118 152 106 258 279 274 314 213 198 168 181 226 232 258 272 281 285 284 280 278 276 271 265 254 263 274 278 236 199 201 173 183 192 186 181 189 167 167 148 203 159 134 99 76 60 82 62 44 61 50 35 12 350 333 6 356 2 350 353 346 359 360 353 9 19 21 48 35 30 30 32 12 22 27 27 27 19 10 14 18 29 1 9 11 15 353 350
190 176 178 162 177 213 210 241 242 158 151 183 168 217 251 283 279 212 185 187 198 240 267 270 264 265 269 267 273 269 265 269 266 286 249 258 246 206 187 158 163 186 184 172 177 177 173 145 128 215 141 146 129 98 81 57 51 37 36 357 25 1 341 339 341 338 339 0 339 356 359 355 357 5 25 15 34 43 35 26 27 21 26 37 34 25 11 8 4 4 7 11 6 2 14 4 2
103 100 121 200 199 281 272 250 219 161 103 220 213 245 294 290 293 244 184 161 231 250 256 254 256 257 259 264 259 262 256 254 320 254 241 243 235 190 158 145 150 158 167 172 175 203 193 182 158 202 190 164 151 142 110 110 91 9 38 43 259 265 273 307 317 319 343 338 339 351 355 356 1 4 22 26 21 30 42 25 34 25 21 42 42 27 357 0 4 353 346 13 24 20 9 0 360
123 121 163 280 156 256 250 195 159 181 152 253 180 258 270 271 297 216 144 149 230 223 237 257 255 248 256 255 265 254 256 289 292 299 308 293 225 158 137 141 152 157 207 177 195 206 199 184 187 199 170 175 179 173 163 142 196 169 164 211 196 273 344 6 333 334 345 333 339 356 350 352 360 13 5 25 28 34 33 37 34 21 24 37 50 28 27 20 8 10 358 14 24 44 22 360 359
69 150 186 304 275 228 283 7 156 176 127 281 173 206 260 288 283 244 171 191 233 221 218 237 241 265 265 261 255 269 282 278 296 266 283 290 234 171 159 167 189 198 180 192 196 180 198 201 212 187 193 182 201 184 151 169 185 167 154 221 153 280 223 230 250 265 306 327 309 350 349 351 7 4 9 16 33 23 30 43 30 19 37 24 42 31 24 23 9 8 7 11 343 11 13 4 24
197 76 88 233 242 113 276 337 109 84 132 253 177 200 284 306 297 250 231 188 242 206 207 244 217 246 254 255 265 283 289 283 283 280 277 251 218 191 172 194 193 181 170 184 186 197 203 217 210 193 196 193 192 213 189 126 137 132 80 55 44 185 274 327 314 299 349 9 330 337 357 7 360 2 3 14 38 37 43 38 20 42 36 36 59 59 32 22 15 10 5 12 36 18 6 350 17
253 173 174 244 218 241 158 194 125 2 33 99 79 30 329 341 345 324 333 284 260 269 257 263 251 233 250 285 282 240 260 274 284 296 292 192 198 201 200 184 154 187 194 199 197 200 201 210 210 197 191 192 195 207 158 145 109 63 35 19 54 7 358 2 15 347 339 313 315 333 314 351 347 2 359 3 22 42 43 47 47 41 46 29 45 65 51 24 6 14 16 28 35 46 10 346 348
323 226 207 196 151 117 86 121 114 123 289 315 116 22 310 294 289 256 281 347 240 271 217 257 256 254 257 266 265 275 262 256 255 273 290 204 223 247 199 165 180 202 211 214 205 206 204 218 210 205 200 191 194 211 160 156 160 150 101 359 330 6 333 338 321 286 305 307 283 286 313 345 350 356 3 342 11 35 34 27 32 41 37 30 44 65 60 28 18 18 14 12 35 29 103 29 2
64 275 200 176 132 124 130 138 87 90 170 293 78 150 269 322 323 332 324 332 284 308 248 255 269 264 246 250 258 265 270 288 283 276 283 270 218 193 211 199 202 204 227 202 204 216 218 220 209 200 198 201 203 196 168 159 129 143 178 196 194 209 230 272 228 234 257 278 309 303 299 313 347 3 327 332 1 40 58 30 38 34 34 19 28 40 40 21 359 12 10 25 25 16 48 57 22
237 237 119 132 127 138 163 157 143 184 228 5 45 100 104 321 296 314 318 328 297 303 277 271 266 266 256 252 254 259 265 260 278 288 292 224 198 196 209 211 195 213 203 173 213 218 218 221 205 204 203 198 196 182 182 182 176 177 178 196 202 214 207 243 255 256 207 279 313 308 327 307 320 354 317 314 342 17 51 28 30 27 43 351 42 54 48 355 15 19 37 40 19 41 53 73 51
218 133 128 148 163 171 161 150 130 117 106 300 327 360 44 271 267 318 15 341 309 274 262 262 258 260 262 257 256 256 258 263 256 272 279 260 226 222 213 214 225 225 192 199 206 215 223 225 212 199 209 210 191 185 184 201 194 183 192 186 227 233 217 242 263 294 308 332 310 303 323 303 306 313 311 291 327 354 13 32 358 9 32 6 45 51 30 29 47 35 31 30 32 30 35 69 65
264 113 83 74 65 60 115 114 87 14 69 268 222 166 139 289 280 343 340 264 276 256 245 246 246 247 252 259 261 258 268 270 253 248 263 260 240 251 260 295 253 226 223 227 231 213 220 204 209 205 224 211 198 192 190 195 201 176 178 200 216 249 241 271 312 286 279 313 307 294 300 302 293 301 310 316 311 341 14 38 2 287 300 345 44 345 360 38 20 19 26 17 11 54 24 54 80
97 82 69 31 42 50 40 55 90 60 358 261 252 179 126 291 273 215 137 223 203 264 303 273 276 270 262 252 247 237 238 245 252 258 265 262 246 227 221 229 252 282 248 220 233 224 210 208 208 216 228 200 197 199 191 204 192 188 205 205 214 233 238 235 280 284 278 296 289 288 282 269 286 261 310 309 302 291 326 68 340 300 338 336 62 257 234 111 35 12 352 49 51 48 18 53 78
135 90 127 89 33 17 40 345 36 100 271 268 291 173 119 150 295 288 242 264 221 175 218 243 248 242 244 246 238 226 216 221 240 270 288 310 340 26 140 242 251 256 260 238 236 230 221 221 203 230 247 214 205 201 198 212 194 207 213 207 218 228 217 212 227 253 264 263 267 278 287 290 287 293 290 297 287 272 255 270 273 304 318 334 258 237 268 155 166 49 340 56 33 84 19 34 47
64 68 35 94 258 43 259 15 132 218 148 322 62 128 66 248 213 254 293 261 253 220 223 242 255 250 245 251 239 212 207 207 223 237 270 306 295 273 242 249 271 266 245 238 235 228 232 228 213 223 254 221 212 198 207 210 203 214 211 214 227 226 218 221 233 246 255 248 252 264 262 249 279 292 249 242 257 246 231 245 263 255 244 223 236 249 269 228 136 194 310 26 357 3 41 62 54
37 68 104 73 51 35 263 277 250 311 302 264 188 298 227 243 300 230 271 280 254 223 238 240 252 253 264 285 303 237 211 203 211 202 205 246 260 261 249 248 250 260 265 262 256 236 231 234 228 216 257 226 202 201 210 207 218 220 211 215 222 214 222 217 232 237 250 240 239 248 244 231 221 223 221 221 226 222 223 222 231 250 230 235 233 229 247 266 175 133 242 313 287 307 50 339 283
103 158 114 181 143 157 229 227 42 204 191 277 281 69 232 71 231 302 270 271 291 247 192 208 216 233 240 251 233 211 217 227 205 195 205 226 245 240 242 250 261 260 275 283 281 262 237 240 221 237 263 255 201 216 201 215 224 222 219 220 222 211 223 220 226 228 240 239 237 239 248 231 220 233 220 228 218 215 228 218 216 239 236 233 239 249 245 231 223 201 200 225 282 247 210 281 312
335 158 97 70 340 153 109 206 152 207 138 15 345 226 180 187 284 288 306 316 23 41 26 4 305 355 26 145 204 224 217 211 201 201 232 249 238 250 263 267 265 268 268 276 269 253 229 233 218 233 243 264 223 222 220 219 228 220 221 223 228 222 228 226 239 233 234 225 230 222 243 231 228 234 236 232 227 212 228 230 225 231 229 234 234 235 244 238 231 230 243 224 271 249 274 296 274
268 54 95 239 145 97 106 67 41 80 54 158 240 316 309 301 348 307 334 40 28 13 355 347 330 355 350 233 238 241 227 206 205 207 214 241 249 256 245 256 272 277 276 258 254 237 233 239 226 241 252 265 254 231 233 223 227 222 229 226 230 227 225 227 230 234 232 227 222 228 233 239 235 231 235 220 224 221 229 233 234 238 232 232 242 238 235 242 232 239 252 245 255 249 236 271 281
71 62 224 153 117 127 124 177 341 57 129 257 39 307 306 28 259 325 347 353 300 1 327 312 313 9 280 255 247 236 228 223 226 234 235 242 235 249 262 260 252 256 256 270 266 249 235 237 228 239 250 253 253 233 234 224 220 224 231 229 229 223 225 230 230 238 235 225 229 229 231 243 233 224 215 217 208 217 227 234 234 242 238 231 237 244 240 243 247 259 257 262 254 248 273 283 268
179 176 194 80 299 326 327 85 19 343 330 302 323 282 245 169 245 345 287 245 265 270 304 325 293 283 253 259 260 259 264 232 221 232 244 254 248 244 245 250 257 254 253 250 264 265 249 240 232 225 245 240 252 260 249 246 220 227 226 230 230 237 232 231 231 233 234 232 243 234 222 233 241 216 204 95 6 286 244 236 234 245 242 239 239 244 241 244 228 253 261 262 272 245 256 276 269
26 55 32 12 92 145 58 138 179 113 211 49 291 39 255 214 217 198 242 240 229 257 275 244 245 248 241 240 236 228 225 224 220 229 240 245 252 246 243 247 255 253 255 256 256 260 250 241 235 242 257 270 269 257 240 244 230 222 234 226 232 230 232 229 229 220 224 229 239 237 237 236 234 182 155 158 172 222 237 245 239 239 244 244 244 247 233 241 230 236 250 261 263 246 255 261 278
338 34 344 10 29 221 108 52 59 265 165 174 186 329 284 269 215 178 236 239 229 205 219 231 241 245 238 232 231 220 217 222 221 218 232 246 251 257 256 253 257 271 265 258 231 230 241 236 232 233 234 247 251 251 235 242 231 230 229 234 237 227 236 232 236 221 228 237 242 239 237 239 217 186 181 184 190 217 219 225 238 240 237 241 241 250 235 224 233 247 246 245 258 246 255 264 262
160 145 122 159 126 118 104 282 49 62 69 222 111 246 267 271 182 213 231 249 230 233 224 235 242 242 236 232 233 219 221 233 223 221 230 248 252 257 261 262 267 269 266 256 247 239 245 232 229 228 230 240 236 244 228 234 224 227 226 237 239 232 234 231 236 236 237 242 241 238 237 234 230 218 185 197 199 206 212 216 226 238 239 241 242 248 244 211 231 243 255 238 248 244 247 259 256